Location: Unspecified
(0.0000°N, 0.0000°E)
Time: 01:15:17
(UTC+00:00)

Explorer 25 - Pass Details

Date: 06 March 2026
Orbit: 523 x 2264 km, 81.3° (Epoch: 14 April)

Event Time Altitude Azimuth Distance (km) Brightness Sun altitude
Rises 21:10:09 0° 220° (SW) 5,824 13.0 -44.5°
Reaches altitude 10° 21:16:11 10° 239° (WSW) 4,699 12.5 -46.0°
Maximum altitude 21:21:59 15° 268° (W) 4,089 12.2 -47.4°
Drops below altitude 10° 21:27:20 10° 298° (WNW) 4,192 12.1 -48.8°
Sets 21:32:16 0° 320° (NW) 4,847 12.4 -50.0°
